Simultaneous Nadir Overpasses (SNOs) Predictions

Prediction of SNOs between METOP-A and NOAA-19 Satellite Orbit:

Table of predicted SNOs for the next 14.0 days since TLE Epoch: 8/6/2016
Index Date (METOP-A) Time (METOP-A) Lat,Lon (METOP-A) SZA (METOP-A ) Date (NOAA-19) Time (NOAA-19) Lat,Lon (NOAA-19) SZA (NOAA-19 ) Distance(km) Time Diff (sec)
1 08/12/2016 18:56:19 76.37,-103.01 61.63 08/12/2016 18:55:08 76.33,-103.02 61.60 3.76 71
2 08/12/2016 19:47:02 -76.32, 64.17 118.40 08/12/2016 19:46:10 -76.32, 64.26 118.41 2.29 52
3 08/12/2016 20:37:41 76.35,-128.42 61.63 08/12/2016 20:37:10 76.33,-128.54 61.62 3.31 31
4 08/12/2016 21:28:24 -76.30, 38.76 118.40 08/12/2016 21:28:12 -76.32, 38.75 118.38 1.88 12
5 08/12/2016 22:19:04 76.28,-154.00 61.59 08/12/2016 22:19:11 76.29,-153.88 61.60 3.34 7
6
